STARLINK-32412, 61680

Orbit data source: Space-Track

STARLINK-32412, 61680 is a payload satellite owned by SpaceX/Seattle (US) in LEO that was launched on Sat, 26 Oct 2024 UTC via an FALCON 9 launch vehicle from the Air Force Eastern Test Range (AFETR). Payloads include a variety of satellites, spacecraft, and rockets equipped with specific instruments for various scientific and technological missions. These include communications satellites like Starlink; space stations such as the ISS; scientific satellites like the Hubble; Earth observation satellites from companies like Planet Labs, Umbra, and HawkEye 360; GPS; miniature CubeSats for education and research; and military/defense satellites.

Loading next visibility...
STARLINK-32412 details
Identifier
61680, 2024-193V
Orbit
LEO
Last TLE update16 hours ago
Origin
Flag of USSpaceX/Seattle (US)
ManufacturerSpaceX/Seattle
MissionOperational spacecraft
Bus & MotorSTARLINK V2M, Unknown motor
Mass730 kg wet, ~700 kg dry
Launch date (UTC)
2024-10-26 (2 months ago)
Launch vehicle
FALCON 9
Launch site
Air Force Eastern Test Range (AFETR)
Object type
Payload
Rocket body
Debris
Shape & HBRUnknown
Radar Cross SectionLarge (>1 m²)

Expand to show TLE details & history

TLE from 16 hours ago
0 STARLINK-32412
1 61680U 24193V   24361.23963513 -.00001476  00000-0 -26943-4 0  9996
2 61680  53.1623 329.2886 0001450  85.5850 274.5320 15.39598426 10592
Epoch: 2024-12-26T05:45Z
Definitive object data (Epoch: 2024-12-26T05:45:04.475Z)
Latitude-0.00005°
Longitude147.79804°
Altitude448.121 km
Speed7.645 km/s
True Right ascension21h 57m 09s
True Declination0° 00' 00"
Sunlit
Object was in daylight at TLE epoch
Visualization TLE readout
Latitude-9.50807°
Longitude137.58114°
Altitude450.084 km
Speed7.643 km/s
Apparent Right ascension22h 45m 23s
Apparent Declination-68° 26' 19"
Sunlit
Object is in daylight
Visualization observer readout
Local Sidereal Time20:39:44
Azimuth168.172° S
Elevation-20.867°
Doppler factor1
Orbital elements
Apogee altitude448.543 km
Perigee altitude446.563 km
Semi-major axis6,825.69 km
Eccentricity0.000145
Inclination53.1623°
RAAN329.2886°
Arg. of periapsis85.585°
True anomaly274.51544°
Mean anomaly274.532°
Eccentric anomaly274.52372°
Mean motion3.84878 °/min
BSTAR-0.000026943
Orbital period93.54 mins
Loading maneuver chart data...
Loading historical data...
Loading historical data...
Loading historical data...
Loading historical data...
Loading historical data...
Loading historical data...
Loading historical data...

STARLINK-32412 Visibility forecast

Observer location: undefined°, undefined

Span
Click to sort rows by Start time (UTC) header in descending order
Start Az.
Max El. time (UTC)
Max El. Az.
Max El.
End time (UTC)
End Az.
6 mins2024-12-27 00:36:46.918Z219.261° SW2024-12-27 00:39:46.918Z173.356° S41.21°2024-12-27 00:42:46.918Z57.057° ENE
5 mins2024-12-27 07:10:46.918Z328.668° NNW2024-12-27 07:12:46.918Z47.461° ENE37.995°2024-12-27 07:15:46.918Z113.077° SE
|